| time (UTC) | temp F | wind direction | speed MPH | gust MPH | rain 1hr in | rain 24hr in | rain mn in | humidity % | barometer mb |
| 20260505210202 | 52 | 176 | 4.0 | 6.0 | 0.05 | 0.34 | 0.34 | 92 | 997.4 |
| 20260505200704 | 51 | 305 | 2.0 | 9.0 | 0.22 | 0.31 | 0.31 | 91 | 997.6 |
| 20260505200203 | 51 | 281 | 4.0 | 13.0 | 0.21 | 0.29 | 0.29 | 90 | 997.7 |
| 20260505193704 | 52 | 300 | 6.0 | 13.0 | 0.09 | 0.17 | 0.17 | 89 | 996.6 |
| 20260505183704 | 59 | 20 | 3.0 | 3.0 | 0.00 | 0.08 | 0.08 | 77 | 993.2 |
| 20260505183203 | 59 | 60 | 2.0 | 5.0 | 0.00 | 0.08 | 0.08 | 77 | 993.4 |
| 20260505173704 | 58 | 97 | 3.0 | 7.0 | 0.02 | 0.08 | 0.08 | 80 | 994.5 |
| 20260505170704 | 59 | 98 | 0.0 | 1.0 | 0.00 | 0.06 | 0.06 | 68 | 994.9 |
| 20260505170203 | 59 | 71 | 1.0 | 8.0 | 0.00 | 0.06 | 0.06 | 67 | 994.8 |
| 20260505163203 | 56 | 58 | 3.0 | 9.0 | 0.00 | 0.06 | 0.06 | 70 | 994.9 |
| 20260505153204 | 57 | 53 | 1.0 | 3.0 | 0.00 | 0.06 | 0.06 | 73 | 995.4 |
| 20260505150204 | 54 | 333 | 0.0 | 8.0 | 0.00 | 0.06 | 0.06 | 72 | 996.1 |
| 20260505123159 | 53 | 80 | 1.0 | 7.0 | 0.00 | 0.06 | 0.06 | 69 | 996.8 |
| 20260505120200 | 52 | 97 | 4.0 | 9.0 | 0.00 | 0.06 | 0.06 | 70 | 997.3 |
| 20260505110200 | 51 | 102 | 7.0 | 14.0 | 0.00 | 0.06 | 0.06 | 71 | 997.8 |
| 20260505093702 | 46 | 86 | 1.0 | 3.0 | 0.00 | 0.06 | 0.06 | 78 | 998.2 |
| 20260505093201 | 47 | 120 | 1.0 | 10.0 | 0.00 | 0.06 | 0.06 | 76 | 998.1 |
| 20260505090700 | 46 | 67 | 5.0 | 9.0 | 0.01 | 0.06 | 0.06 | 80 | 998.4 |
| 20260505090200 | 46 | 75 | 0.0 | 7.0 | 0.01 | 0.06 | 0.06 | 80 | 998.7 |
| 20260505083700 | 43 | 79 | 2.0 | 3.0 | 0.01 | 0.06 | 0.06 | 88 | 999.0 |
| 20260505083200 | 43 | 349 | 1.0 | 6.0 | 0.01 | 0.06 | 0.06 | 87 | 999.2 |
| 20260505080201 | 44 | 20 | 1.0 | 7.0 | 0.00 | 0.05 | 0.05 | 85 | 999.6 |
| 20260505073201 | 42 | 123 | 1.0 | 3.0 | 0.00 | 0.05 | 0.05 | 88 | 999.7 |
| 20260505070700 | 41 | 73 | 1.0 | 3.0 | 0.00 | 0.05 | 0.05 | 89 | 999.9 |
| 20260505070200 | 41 | 54 | 0.0 | 3.0 | 0.00 | 0.05 | 0.05 | 88 | 1000.0 |
| 20260505063700 | 42 | 46 | 2.0 | 3.0 | 0.05 | 0.05 | 0.05 | 84 | 1000.2 |
| 20260505053701 | 44 | 96 | 1.0 | 3.0 | 0.00 | 0.00 | 0.00 | 78 | 1001.1 |
| 20260505053201 | 44 | 83 | 1.0 | 7.0 | 0.00 | 0.00 | 0.00 | 78 | 1000.9 |
| 20260505050701 | 43 | 69 | 2.0 | 5.0 | 0.00 | 0.00 | 0.00 | 78 | 1001.4 |
| 20260505033201 | 48 | 72 | 2.0 | 7.0 | 0.00 | 0.00 | 0.00 | 70 | 1002.4 |
| 20260505030201 | 49 | 105 | 0.0 | 3.0 | 0.00 | 0.00 | 0.00 | 68 | 1002.4 |
| 20260505023701 | 48 | 64 | 2.0 | 3.0 | 0.00 | 0.00 | 0.00 | 68 | 1002.4 |
| 20260505020202 | 50 | 306 | 0.0 | 2.0 | 0.00 | 0.00 | 0.00 | 65 | 1002.6 |
| 20260505013702 | 52 | 269 | 1.0 | 3.0 | 0.00 | 0.00 | 0.00 | 62 | 1002.5 |
| 20260505010701 | 53 | 245 | 2.0 | 5.0 | 0.00 | 0.00 | 0.00 | 60 | 1002.4 |
| 20260505010202 | 53 | 265 | 3.0 | 7.0 | 0.00 | 0.00 | 0.00 | 60 | 1002.4 |
| 20260504233203 | 55 | 255 | 2.0 | 8.0 | 0.00 | 0.00 | 0.00 | 51 | 1001.2 |
| 20260504230702 | 58 | 265 | 2.0 | 8.0 | 0.00 | 0.00 | 0.00 | 46 | 1000.9 |
| 20260504230202 | 59 | 265 | 2.0 | 12.0 | 0.00 | 0.00 | 0.00 | 45 | 1000.8 |
| 20260504223701 | 58 | 226 | 2.0 | 8.0 | 0.00 | 0.00 | 0.00 | 46 | 1000.7 |
| 20260504223201 | 58 | 266 | 3.0 | 10.0 | 0.00 | 0.00 | 0.00 | 46 | 1000.7 |
| 20260504220702 | 60 | 270 | 2.0 | 7.0 | 0.00 | 0.00 | 0.00 | 38 | 1000.7 |
| 20260504220202 | 60 | 290 | 3.0 | 7.0 | 0.00 | 0.00 | 0.00 | 37 | 1000.6 |
| 20260504213701 | 59 | 272 | 2.0 | 6.0 | 0.00 | 0.00 | 0.00 | 41 | 1000.6 |
| 20260504213202 | 59 | 263 | 3.0 | 10.0 | 0.00 | 0.00 | 0.00 | 36 | 1000.6 |